Date,TemperatureHighF,TemperatureAvgF,TemperatureLowF,DewpointHighF,DewpointAvgF,DewpointLowF,HumidityHigh,HumidityAvg,HumidityLow,PressureMaxIn,PressureMinIn,WindSpeedMaxMPH,WindSpeedAvgMPH,GustSpeedMaxMPH,PrecipitationSumIn
2013-2-1,22.3,17.3,14.4,18.3,10.2,5.5,85,73,64,30.40,30.16,8,5,14,0.00
2013-2-2,24.1,18.6,7.5,20.6,12.0,1.1,91,75,65,30.65,30.31,7,4,16,0.00
2013-2-3,29.3,24.8,21.4,23.5,20.1,13.5,91,82,71,30.30,30.16,7,2,15,0.00
2013-2-4,30.7,22.4,16.7,21.2,16.2,9.8,87,77,54,30.41,30.22,4,2,8,0.00
2013-2-5,33.8,29.4,26.8,29.2,26.3,24.3,92,88,79,30.30,30.17,3,1,6,0.00
2013-2-6,39.7,31.2,27.3,25.7,22.5,16.8,92,70,45,30.63,30.29,5,2,12,0.02
2013-2-7,49.8,37.5,16.5,28.8,24.5,12.5,85,61,44,30.64,30.43,4,1,9,0.12
2013-2-8,40.1,34.1,25.9,35.5,29.6,20.6,92,84,72,30.47,30.16,10,2,19,0.14
2013-2-9,42.6,28.6,21.9,19.9,17.0,15.1,80,63,38,30.72,30.48,4,1,11,0.00
2013-2-10,61.5,41.6,16.3,25.4,18.3,11.3,81,45,18,31.23,30.46,3,1,6,0.00
2013-2-11,65.1,58.9,39.0,47.6,35.5,25.6,90,45,25,30.33,30.02,13,7,27,0.06
2013-2-12,49.8,40.7,33.8,28.2,25.3,23.4,67,55,39,30.42,30.26,9,4,17,0.00
2013-2-13,43.0,35.2,27.7,30.5,28.2,23.2,92,77,55,30.19,30.03,2,0,2,0.00
2013-2-14,42.8,35.4,27.3,32.6,29.3,23.7,90,79,64,30.32,30.21,7,3,16,0.20
2013-2-15,41.4,37.6,32.2,33.1,28.6,25.3,86,70,56,30.39,30.26,6,3,13,0.00
2013-2-16,42.6,29.7,22.6,25.9,18.5,12.7,88,64,41,30.39,30.27,4,1,9,0.08
2013-2-17,23.7,18.4,15.6,17.8,13.6,11.4,87,81,63,30.39,30.24,6,3,15,0.00
2013-2-18,46.9,30.8,9.1,22.2,12.1,2.5,76,48,32,30.63,30.41,5,3,11,0.00
2013-2-19,44.2,39.1,32.2,37.6,31.9,23.5,86,76,48,30.24,30.03,11,6,24,0.17
2013-2-20,24.3,19.6,17.8,16.8,11.4,8.4,85,70,57,30.54,30.29,8,5,22,0.00
2013-2-21,37.4,24.5,18.3,16.9,14.1,10.9,80,65,39,30.66,30.51,5,3,13,0.00
2013-2-22,37.9,32.9,21.0,32.6,26.6,13.4,90,78,53,30.60,30.34,7,3,15,0.01
2013-2-23,53.8,40.3,32.7,39.7,33.4,28.4,85,77,57,30.34,30.21,2,0,6,0.00
2013-2-24,31.8,30.0,28.4,28.7,22.9,20.7,88,75,70,30.36,30.21,6,3,15,0.00
2013-2-25,43.7,30.6,23.0,27.7,23.0,18.6,85,74,51,30.57,30.48,1,0,3,0.00
2013-2-26,40.6,37.0,33.4,34.8,26.8,19.5,90,68,49,30.41,29.95,8,3,13,0.69
2013-2-27,43.2,38.7,34.0,38.6,35.5,30.8,94,88,75,30.04,29.93,7,2,15,0.22
2013-2-28,33.8,32.3,32.0,30.9,28.9,28.4,90,87,85,30.02,29.99,2,0,5,0.00